Regional Weather Roundup
Issued by NWS Grand Forks, ND

Home | Current Version | Previous Version | Graphics & Text | Print | Product List | Glossary On
Versions: 1 2 3 4 5 6 7 8 9 10 11 12 13 14 15 16 17 18 19 20 21 22 23 24 25 26 27 28 29 30 31 32 33 34 35 36 37 38 39 40 41 42 43 44 45 46 47 48 49 50
000
ASUS43 KFGF 110210
RWRFGF
PRAIRIE TO PINES  WEATHER ROUNDUP
NATIONAL WEATHER SERVICE EASTERN NORTH DAKOTA/GRAND FORKS ND
800 PM CST SUN DEC 10 2017

 **SATELLITE DATA USED TO AUGMENT SKY COVER AT AUTOMATED STATIONS**
 *****  WEATHER ACROSS EASTERN NORTH DAKOTA  *****

CITY           SKY/WX    TMP DP  RH WIND       PRES   REMARKS
GRAND FORKS    FLURRIES  25  22  88 S12       29.90F WCI  14
GRAND FRKS AFB MOCLDY    27  23  86 S13       29.86F BLWGSNOWWCI  16
GRAND FRKS NWS   N/A     25 N/A N/A S9          N/A  WCI  15
DEVILS LAKE    LGT RAIN  34  30  85 SW9       29.83F
FARGO          CLOUDY    29  22  75 S8        29.94F WCI  21
WAHPETON ARPT  CLOUDY    30  23  74 SE5       29.96S
$$

 ***** WEATHER ACROSS CENTRAL AND WESTERN NORTH DAKOTA  *****

CITY           SKY/WX    TMP DP  RH WIND       PRES   REMARKS
BISMARCK       MOCLDY    42  29  59 W6        29.96F
MINOT          CLOUDY    42  26  53 SW17      29.86F
JAMESTOWN      CLOUDY    37  30  75 W8        29.89F
MINOT AFB      CLOUDY    40  26  58 W13       29.85F
GARRISON         N/A     40  22  48 W15       29.91F
WILLISTON      FAIR      40  19  43 W15       29.97F
DICKINSON      FAIR      35  21  56 W14       29.99S
HETTINGER      FAIR      36  17  46 W12       30.05R
$$

 *****  OTHER AIRPORT OBSERVATIONS IN OUR AREA  *****

CITY           SKY/WX    TMP DP  RH WIND       PRES   REMARKS
WALHALLA       LGT SNOW  27  27 100 S7        29.81F WCI  19
GRAFTON AIRPOR NOT AVBL
VALLEY CITY AR NOT AVBL
CANDO          CLOUDY    34  34 100 W9        29.83F
CAVALIER APRT  MIX PCPN  25  23  93 S13       29.82F WCI  13
GWINNER          N/A     36  30  80 SW7       29.94S
SHEYENNE NWR     N/A     30  26  84 S5        29.95S
ROLLA          CLOUDY    34  30  86 SW7       29.79F
 ***** THE ABOVE OBSERVATIONS ARE NON NWS ARE NOT QUALITY
       CONTROLLED AND MAY MIS-REPORT RAIN FOR SNOW...
$$

  *****  WEATHER ACROSS NORTHERN MINNESOTA  *****

CITY           SKY/WX    TMP DP  RH WIND       PRES   REMARKS
FLAG ISLAND    FAIR      12  10  92 S7        29.90R WCI   2
WARROAD        MOCLDY    18  12  79 SW6       29.92S WCI   9
ROSEAU         CLOUDY    19  16  86 S8        29.90F WCI   9
HALLOCK        LGT SNOW  25  21  86 S14       29.86F WCI  13
THF RVR FALLS  CLOUDY    21  18  88 S8        29.92F WCI  11
BAUDETTE       CLOUDY    15  12  88 SE7       29.90F WCI   5
WASKISH        CLOUDY    19  18  93 CALM      29.92F
CROOKSTON      MOCLDY    23  21  93 S9        29.94F WCI  13
STEPHEN NDAWN    N/A     23  19  86 S13         N/A  WCI  11
GREENBUSH NDAW   N/A     19  18  93 S9          N/A  WCI   9
$$
  *****  WEATHER ACROSS CENTRAL AND WEST MINNESOTA  *****

CITY           SKY/WX    TMP DP  RH WIND       PRES   REMARKS
FOSSTON        CLOUDY    19  18  93 S7        29.93F WCI  10
BEMIDJI        FAIR      17  15  89 S3        29.93S
PARK RAPIDS    FAIR      20  15  81 S5        29.92F WCI  13
ELBOW LAKE     CLOUDY    27  22  82 E6        29.96F WCI  21
WADENA         CLOUDY    19  18  93 SW5       29.94S WCI  13
DETROIT LAKES  FAIR      23  21  93 S3        29.94S
MOORHEAD       CLOUDY    27  21  80 CALM      29.95F
FERGUS FALLS   CLOUDY    27  21  80 SE3       29.98S
MORRIS MN      CLOUDY    30  23  74 S5        29.95F
STAPLES        MOCLDY    19  18  93 CALM      29.95F
$$
  *****  WEATHER ELSEWHERE ACROSS MINNESOTA  *****

CITY           SKY/WX    TMP DP  RH WIND       PRES   REMARKS
DULUTH         MOCLDY    11   9  92 SE3       29.95F
INTRNTL FALLS  MOCLDY     4  -1  80 CALM      29.94R
ELY            FAIR       0  -4  85 CALM      29.95S
CLOQUET        FAIR      16  12  86 CALM      29.97F
WHEATON        NOT AVBL
BRAINERD       FAIR      19  15  84 CALM      29.96F
HIBBING        FAIR       5   3  91 CALM      29.95F
ALEXANDRIA     MOCLDY    24  20  84 S3        29.95F
SAINT CLOUD    FAIR      19  16  88 CALM      29.99F
MINNEAPOLIS    MOCLDY    27  21  78 S5        30.03F WCI  22
$$

  *****  WEATHER ACROSS SOUTH DAKOTA  *****

CITY           SKY/WX    TMP DP  RH WIND       PRES   REMARKS
SIOUX FALLS    CLOUDY    35  29  78 SW3       30.02F
BROOKINGS      FAIR      33  28  81 SW8       29.99F
WATERTOWN      FAIR      34  29  82 SW10      29.95F
HURON          FAIR      36  28  73 SW8       30.00F
SISSETON         N/A     33  26  75 SE6       29.94F
ABERDEEN       FAIR      32  27  81 SW9       29.98F WCI  24
MITCHELL       FAIR      39  28  64 W5        30.03F
PIERRE         FAIR      46  21  37 W14       30.02S
MOBRIDGE       FAIR      41  27  57 NW6       29.97F
RAPID CITY     FAIR      52   7  16 NW13      30.12F
$$

  *****  SOME WEATHER IN NEARBY STATES *****

CITY           SKY/WX    TMP DP  RH WIND       PRES   REMARKS
GLASGOW MT     FAIR      31  15  52 NW6       30.09F
GREAT FALLS MT FAIR      40  11  30 SW14      30.35S
CHEYENNE WY    FAIR      44   0  16 W15       30.31F
SCOTTSBLUFF NE FAIR      35   8  32 NW8       30.27R
OMAHA NE       FAIR      33  22  63 CALM      30.09F
DES MOINES IA  FAIR      39  25  57 VRB5      30.09S
DAVENPORT IA   FAIR      26  19  74 CALM      30.12R
CHICAGO IL     CLOUDY    30  19  63 NW8       30.06R WCI  22
EAU CLAIRE WI  CLOUDY    17  15  92 CALM      30.04S
LA CROSSE WI   CLOUDY    28  20  71 CALM      30.07S
$$

  *****  SOME NATIONAL WEATHER *****

CITY           SKY/WX    TMP DP  RH WIND       PRES   REMARKS
LA GUARDIA NY  MOCLDY    37  22  54 SW13G22   30.01R
RALEIGH NC     FAIR      31  25  78 SW6       30.15S
ATLANTA GA     FAIR      37  25  61 W7        30.22S
NEW ORLEANS LA FAIR      42  39  89 CALM      30.35R
OKLAHOMA CITY  FAIR      53  13  20 NW3       30.26F
ALBUQUERQUE NM FAIR      37   1  22 SE5       30.45S
SALT LAKE CITY FAIR      29  25  85 CALM      30.58S FOG
LOS ANGELES CA CLOUDY    75  14  10 NE3       30.10R
BOISE ID       CLOUDY    26  20  77 SE3       30.65F
SEATTLE WA     FAIR      44  30  57 N10       30.32F
$$

*** WEATHER ACROSS MANITOBA...SASKATCHEWAN AND ONTARIO ***
                ***ONTARIO***

CITY           SKY/WX    TMP DP  RH WIND       PRES   REMARKS
GERALDTON      CLEAR    -15 -18  84 SW6       29.94F WCI -29
THUNDER BAY    PTCLDY    -2  -4  92 VRB2      30.03F
SIOUX LOOKOUT  MOCLDY    -8 -11  84 S7        29.91F WCI -22
TORONTO        CLOUDY    27  19  74 W17G23    29.84S WCI  14
BIG TROUT LK   MOCLDY    -4  -8  84 W8        29.86F WCI -19
PICKLE LAKE    CLOUDY    -4  -9  77 W7        29.87F WCI -18
DRYDEN         CLOUDY     1  -2  85 S12       29.89F WCI -15
KENORA         MOCLDY    10   7  85 S9        29.88S WCI  -2
$$
                *** MANITOBA***

CITY           SKY/WX    TMP DP  RH WIND       PRES   REMARKS
BRANDON        CLOUDY    32  28  86 W9        29.74F WCI  24
DAUPHIN        MOCLDY    34  30  86 W7        29.70S
ISLAND LAKE    FLURRIES   1  -4  78 S6        29.81F WCI -10
PILOT MOUND      N/A     30  28  93 SW7         N/A  WCI  23
THE PAS        LGT SNOW  19  16  86 N6        29.74R WCI  11
THOMPSON       LGT SNOW   1  -2  85 W2        29.80S FOG
WINNIPEG       LGT SNOW  23  19  86 S14       29.80F VSB 1   WCI  11
LYNN LAKE      FLURRIES   9   7  92 N9G21     29.87R WCI  -5
CHURCHILL      FLURRIES   5   1  85 N12       29.90R WCI -11
GILLAM         FLURRIES   0  -6  78 VRB2      29.83R
$$
                ***SASKATCHEWAN***

CITY           SKY/WX    TMP DP  RH WIND       PRES   REMARKS
ESTEVAN        MOCLDY    37  27  65 W17       29.86F
KINDERSLEY     PTCLDY    37  28  70 NW17G24   30.11R
LLOYDMINSTER   PTCLDY    39  30  70 NW16G32   30.07R
PRINCE ALBERT  LGT RAIN  39  34  81 NW18G28   29.82R
REGINA         CLOUDY    41  28  60 W31G41    29.86S
YORKTON        MOCLDY    36  28  75 W15       29.70F
N. BATTLEFORD  CLOUDY    39  32  75 NW26G38   30.01R
LA RONGE       FLURRIES  28  25  86 NW7       29.91R WCI  21
SASKATOON      MOCLDY    37  32  81 NW21G30   29.91R
SWIFT CURRENT  CLEAR     39  25  56 NW32G47   30.06S
$$
NOTE: THESE ARE AUTOMATED STATIONS WITH LIMITED QUALITY CONTROL
      "FAIR" INDICATES FEW OR NO CLOUDS BELOW 12,000 FEET WITH NO
      SIGNIFICANT WEATHER AND/OR OBSTRUCTIONS TO VISIBILITY.
      SKY/WX - SKY CONDITION AND SIGNIFICANT WEATHER.
      TMP - AIR TEMPERATURE.    DP   - DEWPOINT TEMPERATURE.
      RH  - RELATIVE HUMIDITY.  PRES - PRESSURE.
      HX  - HEAT INDEX.         WCI  - WIND CHILL INDEX.
$



USA.gov is the U.S. government's official web portal to all federal, state and local government web resources and services.